星链-37220(STARLINK-37220)

导读

STARLINK-37220(NORAD编号68398)是美国SpaceX公司星链(Starlink)低轨互联网星座中的一颗卫星,属于星链大规模组网计划的一部分。星链项目计划在近地轨道部署超4万颗卫星,旨在为全球提供覆盖广、容量大、时延低的高速互联网接入服务,目前已实现商业化运营并扩展至手机直连服务领域。该卫星运行于近地轨道,采用Ku/Ka频段工作,承担天基通信任务,助力星链实现全球网络覆盖,为偏远地区、应急场景及移动用户提供互联网连接服务,是SpaceX构建全球低轨卫星通信网络的组成单元。

Basic Information
目录编号:
68398
目录名称:
STARLINK-37220
国际标识:
2026-063U
轨道中心:
EARTH
卫星名称:
星链-37220
卫星全名:
星链-37220(STARLINK-37220)
卫星状态:
在轨 (已飞行171 天)
发射日期:
2026-03-26 UTC
国别 :
美国 (US)
星等 :
--
This satellite is enrolled in the Space Conjunction Data Service (SCDS) and the current flight risk assessment level is: No High Risk
Orbit Information
数据来源 国际轨道数据
星历时间: 2026-09-13T07:17:52+0800
11小时前
查看轨道信息
半长轴: 6843.733km
偏心率: 0.0001275
轨道倾角: 97.287°
近地点辐角 95.542°
升交点赤经 36.921°
平近点角 264.596°
近地点: 464.723km
远地点: 466.469km
周期: 93.907分钟
每日圈数: 15.334275
Detailed Information
固有亮度:
5
最大亮度:
2.5
卫星平台:
Starlink V1.0
覆盖范围:
全球
运营商:
太空探索技术公司
运营商所在国:
美国
制造商(研发单位):
太空探索技术公司
制造商所在国:
美国
使用方式:
暂无
Satellite Introduction
Starlink 计划是 SpaceX 推出的全球卫星互联网项目,通过发射低轨道卫星,为全球尤其是偏远地区提供高速、低延迟的互联网服务。自 2019 年起,Starlink 已部署数千颗卫星,旨在缩小全球数字鸿沟,推动互联网普及。该项目还为军事、航空等行业提供通信支持,带来广泛经济效益。
2D Orbit Map
3D Orbit Map
Orbit Altitude Analysis Chart
Orbit Inclination Analysis Chart
Orbit Comprehensive Analysis Chart
View Comprehensive Chart
Conjunction Data List
Event ID Objects TCA Miss Dist (km) Collision Risk Probability Collision Risk Index (CRI) Action
CDM_260914-084506-275806-839821
2026-09-14T
08:45:00+0000
2.893 km
极远距离
1.32536E-6 低风险 0.37
CDM_260913-155705-230306-839821
2026-09-13T
15:57:46+0000
2.587 km
极远距离
1.312131E-6 低风险 0.37
CDM_260914-071406-295506-839821
2026-09-14T
07:14:58+0000
2.547 km
极远距离
1.110851E-6 低风险 0.36
CDM_260915-112404-782206-839821
2026-09-15T
11:24:04+0000
2.716 km
极远距离
1.098505E-6 低风险 0.36
Miss Distance Evolution Trend with All Objects
Collision Probability Evolution Trend with All Objects